,,Stat6,,Stat2,,Stat8,,Stat9,,Stat10,,Wind1,,Wind1,
time,status,PA1M_AVG,status,PR1M_SUM,status,RH1M_AVG,status,SR1M_AVG,status,TA1M_AVG,status,W1dAve1m,status,W1sAve1m,
2005-08-27, 00:00:00,VALID,918.493,VALID,0,VALID,93.5888,VALID,-0.0509425,VALID,17.7688,VALID,2,VALID,0.84554,
2005-08-27, 00:01:00,VALID,918.487,VALID,0,VALID,93.4413,VALID,-0.101885,VALID,17.7524,VALID,13,VALID,0.986914,
2005-08-27, 00:02:00,VALID,918.477,VALID,0,VALID,93.5914,VALID,-0.0849042,VALID,17.7561,VALID,11,VALID,0.703488,
2005-08-27, 00:03:00,VALID,918.493,VALID,0,VALID,93.852,VALID,-0.0679233,VALID,17.7434,VALID,10,VALID,0.700149,
2005-08-27, 00:04:00,VALID,918.497,VALID,0,VALID,93.6804,VALID,-0.101885,VALID,17.7079,VALID,14,VALID,0.790179,
2005-08-27, 00:05:00,VALID,918.472,VALID,0,VALID,93.5876,VALID,-0.0509425,VALID,17.7113,VALID,6,VALID,0.645703,
2005-08-27, 00:06:00,VALID,918.468,VALID,0,VALID,93.4782,VALID,-0.0679233,VALID,17.6947,VALID,2,VALID,0.632626,
2005-08-27, 00:07:00,VALID,918.47,VALID,0,VALID,93.0904,VALID,-0.0849042,VALID,17.7012,VALID,347,VALID,0.818182,
2005-08-27, 00:08:00,VALID,918.446,VALID,0,VALID,92.8666,VALID,-0.0849042,VALID,17.7305,VALID,346,VALID,0.612827,
2005-08-27, 00:09:00,VALID,918.435,VALID,0,VALID,92.8589,VALID,-0.101885,VALID,17.7399,VALID,344,VALID,0.242551,
2005-08-27, 00:10:00,VALID,918.391,VALID,0,VALID,92.8856,VALID,-0.0509425,VALID,17.7533,VALID,344,VALID,0.297433,
2005-08-27, 00:11:00,VALID,918.385,VALID,0,VALID,92.3961,VALID,-0.0849042,VALID,17.7755,VALID,346,VALID,0.470348,
2005-08-27, 00:12:00,VALID,918.354,VALID,0,VALID,92.2079,VALID,-0.0509425,VALID,17.8112,VALID,348,VALID,0.785528,
2005-08-27, 00:13:00,VALID,918.313,VALID,0,VALID,92.1392,VALID,-0.0509425,VALID,17.8271,VALID,350,VALID,0.692535,
2005-08-27, 00:14:00,VALID,918.276,VALID,0,VALID,91.4487,VALID,-0.0509425,VALID,17.843,VALID,5,VALID,1.08967,
2005-08-27, 00:15:00,VALID,918.242,VALID,0,VALID,91.277,VALID,-0.0339617,VALID,17.8915,VALID,19,VALID,1.36737,
2005-08-27, 00:16:00,VALID,918.218,VALID,0,VALID,90.6705,VALID,-0.101885,VALID,17.9207,VALID,18,VALID,1.22947,
2005-08-27, 00:17:00,VALID,918.184,VALID,0,VALID,90.2432,VALID,-0.0679233,VALID,17.9659,VALID,22,VALID,1.41462,
2005-08-27, 00:18:00,VALID,918.155,VALID,0,VALID,90.2521,VALID,-0.0849042,VALID,18.0015,VALID,32,VALID,1.52674,
2005-08-27, 00:19:00,VALID,918.133,VALID,0,VALID,90.6387,VALID,-0.0509425,VALID,18.0015,VALID,39,VALID,1.28161,
2005-08-27, 00:20:00,VALID,918.123,VALID,0,VALID,91.3406,VALID,-0.0679233,VALID,17.9565,VALID,46,VALID,1.3423,
2005-08-27, 00:21:00,VALID,918.12,VALID,0,VALID,91.8315,VALID,-0.0509425,VALID,17.8689,VALID,51,VALID,1.10104,
2005-08-27, 00:22:00,VALID,918.123,VALID,0,VALID,91.9777,VALID,-0.0509425,VALID,17.8107,VALID,54,VALID,0.898996,
2005-08-27, 00:23:00,VALID,918.106,VALID,0,VALID,92.1519,VALID,-0.0679233,VALID,17.7655,VALID,51,VALID,0.718395,
2005-08-27, 00:24:00,VALID,918.082,VALID,0,VALID,91.8785,VALID,-0.0679233,VALID,17.733,VALID,79,VALID,0.906445,
2005-08-27, 00:25:00,VALID,918.049,VALID,0,VALID,91.5008,VALID,-0.0679233,VALID,17.7496,VALID,62,VALID,1.13379,
2005-08-27, 00:26:00,VALID,918.026,VALID,0,VALID,90.6184,VALID,-0.0509425,VALID,17.7909,VALID,58,VALID,0.983817,
2005-08-27, 00:27:00,VALID,918.01,VALID,0,VALID,90.1453,VALID,-0.0169808,VALID,17.8781,VALID,64,VALID,0.730183,
2005-08-27, 00:28:00,VALID,917.996,VALID,0,VALID,89.5273,VALID,-0.0169808,VALID,17.9265,VALID,70,VALID,0.430414,
2005-08-27, 00:29:00,VALID,917.969,VALID,0,VALID,88.9665,VALID,-0.0509425,VALID,17.9915,VALID,69,VALID,0.586111,
2005-08-27, 00:30:00,VALID,917.95,VALID,0,VALID,88.6804,VALID,0,VALID,18.0552,VALID,66,VALID,0.466016,
2005-08-27, 00:31:00,VALID,917.927,VALID,0,VALID,89.3379,VALID,0,VALID,18.0935,VALID,66,VALID,0.237282,
2005-08-27, 00:32:00,VALID,917.915,VALID,0,VALID,89.7028,VALID,0.0169808,VALID,18.097,VALID,66,VALID,0.25881,
2005-08-27, 00:33:00,VALID,917.891,VALID,0,VALID,89.1395,VALID,0.0169808,VALID,18.0746,VALID,66,VALID,0,
2005-08-27, 00:34:00,VALID,917.868,VALID,0,VALID,88.9767,VALID,0,VALID,18.0485,VALID,66,VALID,0,
2005-08-27, 00:35:00,VALID,917.844,VALID,0,VALID,89.2348,VALID,0.0169808,VALID,18.0388,VALID,66,VALID,0,
2005-08-27, 00:36:00,VALID,917.817,VALID,0,VALID,88.6245,VALID,-0.0169808,VALID,18.0425,VALID,66,VALID,0,
2005-08-27, 00:37:00,VALID,917.788,VALID,0,VALID,87.9416,VALID,0,VALID,18.0451,VALID,66,VALID,0,
2005-08-27, 00:38:00,VALID,917.792,VALID,0,VALID,88.5533,VALID,0,VALID,18.094,VALID,66,VALID,0,
2005-08-27, 00:39:00,VALID,917.773,VALID,0,VALID,88.1451,VALID,0,VALID,18.1717,VALID,11,VALID,0.449128,
2005-08-27, 00:40:00,VALID,917.742,VALID,0,VALID,90.3589,VALID,0,VALID,18.2459,VALID,6,VALID,0.339844,
2005-08-27, 00:41:00,VALID,917.742,VALID,0,VALID,91.567,VALID,0,VALID,18.1454,VALID,359,VALID,0.321646,
2005-08-27, 00:42:00,VALID,917.746,VALID,0,VALID,90.6946,VALID,0,VALID,18.0589,VALID,324,VALID,0.438301,
2005-08-27, 00:43:00,VALID,917.745,VALID,0,VALID,89.1051,VALID,0,VALID,18.0548,VALID,293,VALID,0.713315,
2005-08-27, 00:44:00,VALID,917.736,VALID,0,VALID,89.2018,VALID,0,VALID,18.0937,VALID,281,VALID,0.672828,
2005-08-27, 00:45:00,VALID,917.697,VALID,0,VALID,89.2463,VALID,0,VALID,18.081,VALID,258,VALID,0.295436,
2005-08-27, 00:46:00,VALID,917.654,VALID,0,VALID,89.5375,VALID,0,VALID,18.0744,VALID,258,VALID,0.00218023,
2005-08-27, 00:47:00,VALID,917.622,VALID,0,VALID,90.4416,VALID,0,VALID,18.0679,VALID,258,VALID,0,
2005-08-27, 00:48:00,VALID,917.583,VALID,0,VALID,91.7425,VALID,0,VALID,18.0455,VALID,258,VALID,0.0239955,
2005-08-27, 00:49:00,VALID,917.56,VALID,0,VALID,92.2943,VALID,0,VALID,17.9609,VALID,282,VALID,0.28032,
2005-08-27, 00:50:00,VALID,917.559,VALID,0,VALID,92.1392,VALID,0.0339617,VALID,17.8421,VALID,342,VALID,0.39335,
2005-08-27, 00:51:00,VALID,917.548,VALID,0,VALID,92.2511,VALID,0.0169808,VALID,17.7483,VALID,342,VALID,0.426054,
2005-08-27, 00:52:00,VALID,917.539,VALID,0,VALID,92.7864,VALID,0,VALID,17.6966,VALID,344,VALID,0.440104,
2005-08-27, 00:53:00,VALID,917.534,VALID,0,VALID,93.2201,VALID,0.0169808,VALID,17.6648,VALID,345,VALID,0.490189,
2005-08-27, 00:54:00,VALID,917.537,VALID,0,VALID,93.3281,VALID,0.0169808,VALID,17.6032,VALID,347,VALID,0.648619,
2005-08-27, 00:55:00,VALID,917.529,VALID,0,VALID,92.5016,VALID,0,VALID,17.5811,VALID,350,VALID,0.659339,
2005-08-27, 00:56:00,VALID,917.526,VALID,0,VALID,91.8722,VALID,0,VALID,17.6164,VALID,353,VALID,0.591025,
2005-08-27, 00:57:00,VALID,917.51,VALID,0,VALID,91.7297,VALID,0,VALID,17.6644,VALID,353,VALID,0.465216,
2005-08-27, 00:58:00,VALID,917.511,VALID,0,VALID,91.6827,VALID,0,VALID,17.6872,VALID,355,VALID,0.61258,
2005-08-27, 00:59:00,VALID,917.498,VALID,0,VALID,92.0934,VALID,0.0169808,VALID,17.6969,VALID,355,VALID,0.563953,
2005-08-27, 01:00:00,VALID,917.506,VALID,0,VALID,92.377,VALID,-0.0169808,VALID,17.6934,VALID,358,VALID,0.542878,
2005-08-27, 01:01:00,VALID,917.503,VALID,0,VALID,92.2918,VALID,0.0339617,VALID,17.6805,VALID,37,VALID,0.790128,
2005-08-27, 01:02:00,VALID,917.511,VALID,0,VALID,92.0743,VALID,0.0169808,VALID,17.6969,VALID,46,VALID,0.705966,
2005-08-27, 01:03:00,VALID,917.511,VALID,0,VALID,92.3045,VALID,0,VALID,17.6966,VALID,46,VALID,0.713796,
2005-08-27, 01:04:00,VALID,917.514,VALID,0,VALID,92.719,VALID,0,VALID,17.6969,VALID,46,VALID,0.885901,
2005-08-27, 01:05:00,VALID,917.518,VALID,0,VALID,92.9022,VALID,0.0339617,VALID,17.6708,VALID,45,VALID,1.12938,
2005-08-27, 01:06:00,VALID,917.491,VALID,0,VALID,93.3523,VALID,0,VALID,17.6254,VALID,36,VALID,1.17429,
2005-08-27, 01:07:00,VALID,917.472,VALID,0,VALID,93.7262,VALID,0,VALID,17.574,VALID,36,VALID,1.09673,
2005-08-27, 01:08:00,VALID,917.46,VALID,0,VALID,93.7223,VALID,0.0339617,VALID,17.5415,VALID,31,VALID,1.07439,
2005-08-27, 01:09:00,VALID,917.438,VALID,0,VALID,93.2302,VALID,0,VALID,17.5385,VALID,19,VALID,1.20295,
2005-08-27, 01:10:00,VALID,917.401,VALID,0,VALID,93.2989,VALID,0,VALID,17.5737,VALID,20,VALID,1.19404,
2005-08-27, 01:11:00,VALID,917.37,VALID,0,VALID,93.1934,VALID,0.0169808,VALID,17.5899,VALID,21,VALID,1.10615,
2005-08-27, 01:12:00,VALID,917.367,VALID,0,VALID,92.3897,VALID,0,VALID,17.6065,VALID,21,VALID,1.23819,
2005-08-27, 01:13:00,VALID,917.334,VALID,0,VALID,90.6934,VALID,0,VALID,17.6805,VALID,18,VALID,1.29671,
2005-08-27, 01:14:00,VALID,917.324,VALID,0,VALID,90.4327,VALID,0.0169808,VALID,17.8292,VALID,17,VALID,1.08629,
2005-08-27, 01:15:00,VALID,917.318,VALID,0,VALID,89.4726,VALID,0.0169808,VALID,17.9159,VALID,17,VALID,1.0069,
2005-08-27, 01:16:00,VALID,917.303,VALID,0,VALID,88.6169,VALID,0.0169808,VALID,17.9971,VALID,10,VALID,1.02586,
2005-08-27, 01:17:00,VALID,917.289,VALID,0,VALID,88.9882,VALID,0.0339617,VALID,18.1039,VALID,10,VALID,0.980374,
2005-08-27, 01:18:00,VALID,917.286,VALID,0,VALID,87.6199,VALID,0.0169808,VALID,18.1292,VALID,6,VALID,0.662972,
2005-08-27, 01:19:00,VALID,917.265,VALID,0,VALID,87.4966,VALID,0,VALID,18.2033,VALID,5,VALID,0.661719,
2005-08-27, 01:20:00,VALID,917.248,VALID,0,VALID,87.5614,VALID,0,VALID,18.2653,VALID,5,VALID,0.464931,
2005-08-27, 01:21:00,VALID,917.242,VALID,0,VALID,87.8755,VALID,0.0169808,VALID,18.2745,VALID,4,VALID,0.39234,
2005-08-27, 01:22:00,VALID,917.23,VALID,0,VALID,87.4597,VALID,0,VALID,18.284,VALID,351,VALID,0.209077,
2005-08-27, 01:23:00,VALID,917.218,VALID,0,VALID,88.2926,VALID,0.0169808,VALID,18.2969,VALID,307,VALID,0.287109,
2005-08-27, 01:24:00,VALID,917.188,VALID,0,VALID,89.2094,VALID,0,VALID,18.2614,VALID,265,VALID,0.124023,
2005-08-27, 01:25:00,VALID,917.154,VALID,0,VALID,89.2399,VALID,0.0509425,VALID,18.2261,VALID,314,VALID,0.452744,
2005-08-27, 01:26:00,VALID,917.111,VALID,0,VALID,86.7832,VALID,0.0509425,VALID,18.2579,VALID,2,VALID,0.568924,
2005-08-27, 01:27:00,VALID,917.072,VALID,0,VALID,88.051,VALID,0.0339617,VALID,18.355,VALID,2,VALID,0.340116,
2005-08-27, 01:28:00,VALID,917.041,VALID,0,VALID,88.2392,VALID,0,VALID,18.3423,VALID,2,VALID,0.212054,
2005-08-27, 01:29:00,VALID,917.007,VALID,0,VALID,86.3063,VALID,0,VALID,18.323,VALID,4,VALID,0.644141,
2005-08-27, 01:30:00,VALID,916.983,VALID,0,VALID,86.4386,VALID,-0.101885,VALID,18.4115,VALID,16,VALID,0.822173,
2005-08-27, 01:31:00,VALID,916.967,VALID,0,VALID,87.26,VALID,-0.135847,VALID,18.4268,VALID,14,VALID,0.511446,
2005-08-27, 01:32:00,VALID,916.933,VALID,0,VALID,86.2771,VALID,-0.0849042,VALID,18.4245,VALID,14,VALID,0.53683,
2005-08-27, 01:33:00,VALID,916.896,VALID,0,VALID,84.6901,VALID,-0.101885,VALID,18.4401,VALID,14,VALID,0.594599,
2005-08-27, 01:34:00,VALID,916.872,VALID,0,VALID,83.8458,VALID,-0.101885,VALID,18.5476,VALID,14,VALID,0.508358,
2005-08-27, 01:35:00,VALID,916.843,VALID,0,VALID,83.6372,VALID,-0.135847,VALID,18.6309,VALID,14,VALID,0.319382,
2005-08-27, 01:36:00,VALID,916.81,VALID,0,VALID,82.7713,VALID,-0.101885,VALID,18.689,VALID,14,VALID,0.517428,
2005-08-27, 01:37:00,VALID,916.805,VALID,0,VALID,83.5432,VALID,-0.101885,VALID,18.7693,VALID,14,VALID,0.303544,
2005-08-27, 01:38:00,VALID,916.803,VALID,0,VALID,84.282,VALID,-0.101885,VALID,18.7728,VALID,14,VALID,0.375195,
2005-08-27, 01:39:00,VALID,916.81,VALID,0,VALID,84.109,VALID,-0.118866,VALID,18.7375,VALID,14,VALID,0.504001,
2005-08-27, 01:40:00,VALID,916.806,VALID,0,VALID,83.257,VALID,-0.118866,VALID,18.6955,VALID,14,VALID,0.412791,
2005-08-27, 01:41:00,VALID,916.816,VALID,0,VALID,82.3033,VALID,-0.101885,VALID,18.7015,VALID,14,VALID,0.413699,
2005-08-27, 01:42:00,VALID,916.812,VALID,0,VALID,82.5424,VALID,-0.101885,VALID,18.7695,VALID,14,VALID,0.224077,
2005-08-27, 01:43:00,VALID,916.8,VALID,0,VALID,82.5208,VALID,-0.101885,VALID,18.7958,VALID,14,VALID,0.19401,
2005-08-27, 01:44:00,VALID,916.796,VALID,0,VALID,82.3402,VALID,-0.101885,VALID,18.7859,VALID,14,VALID,0.260653,
2005-08-27, 01:45:00,VALID,916.79,VALID,0,VALID,82.3834,VALID,0,VALID,18.7976,VALID,14,VALID,0.121528,
2005-08-27, 01:46:00,VALID,916.763,VALID,0,VALID,82.7904,VALID,0,VALID,18.781,VALID,14,VALID,0.184411,
2005-08-27, 01:47:00,VALID,916.731,VALID,0,VALID,82.2003,VALID,-0.0169808,VALID,18.755,VALID,5,VALID,0.304861,
2005-08-27, 01:48:00,VALID,916.704,VALID,0,VALID,82.3211,VALID,-0.0169808,VALID,18.7709,VALID,360,VALID,0.47202,
2005-08-27, 01:49:00,VALID,916.693,VALID,0,VALID,82.1876,VALID,0,VALID,18.7679,VALID,348,VALID,0.677649,
2005-08-27, 01:50:00,VALID,916.688,VALID,0,VALID,82.3974,VALID,0.0169808,VALID,18.7902,VALID,328,VALID,0.637429,
2005-08-27, 01:51:00,VALID,916.656,VALID,0,VALID,83.7034,VALID,0.0169808,VALID,18.8262,VALID,310,VALID,0.155253,
2005-08-27, 01:52:00,VALID,916.659,VALID,0,VALID,85.284,VALID,0.0169808,VALID,18.8004,VALID,310,VALID,0.119048,
2005-08-27, 01:53:00,VALID,916.657,VALID,0,VALID,85.0157,VALID,0.0169808,VALID,18.7323,VALID,310,VALID,0,
2005-08-27, 01:54:00,VALID,916.664,VALID,0,VALID,85.4251,VALID,0.0169808,VALID,18.6807,VALID,310,VALID,0,
2005-08-27, 01:55:00,VALID,916.668,VALID,0,VALID,85.3145,VALID,0,VALID,18.6226,VALID,310,VALID,0.0012718,
2005-08-27, 01:56:00,VALID,916.671,VALID,0,VALID,85.1352,VALID,0,VALID,18.5707,VALID,310,VALID,0,
2005-08-27, 01:57:00,VALID,916.681,VALID,0,VALID,84.788,VALID,0.0169808,VALID,18.5162,VALID,310,VALID,0,
2005-08-27, 01:58:00,VALID,916.684,VALID,0,VALID,84.7957,VALID,0.0169808,VALID,18.471,VALID,310,VALID,0,
2005-08-27, 01:59:00,VALID,916.688,VALID,0,VALID,84.1561,VALID,0,VALID,18.4387,VALID,310,VALID,0.0339844,
2005-08-27, 02:00:00,VALID,916.7,VALID,0,VALID,84.0505,VALID,0,VALID,18.4348,VALID,310,VALID,0,
2005-08-27, 02:01:00,VALID,916.702,VALID,0,VALID,85.2789,VALID,0.0339617,VALID,18.4348,VALID,310,VALID,0,
2005-08-27, 02:02:00,VALID,916.712,VALID,0,VALID,84.8415,VALID,0,VALID,18.3859,VALID,310,VALID,0,
2005-08-27, 02:03:00,VALID,916.715,VALID,0,VALID,85.0767,VALID,0.0169808,VALID,18.3576,VALID,310,VALID,0,
2005-08-27, 02:04:00,VALID,916.714,VALID,0,VALID,84.666,VALID,0.0169808,VALID,18.3126,VALID,310,VALID,0,
2005-08-27, 02:05:00,VALID,916.717,VALID,0,VALID,84.6355,VALID,0.0169808,VALID,18.29,VALID,310,VALID,0,
2005-08-27, 02:06:00,VALID,916.71,VALID,0,VALID,84.3722,VALID,0,VALID,18.2706,VALID,310,VALID,0,
2005-08-27, 02:07:00,VALID,916.688,VALID,0,VALID,83.8954,VALID,0,VALID,18.2644,VALID,310,VALID,0,
2005-08-27, 02:08:00,VALID,916.69,VALID,0,VALID,83.8509,VALID,0,VALID,18.2672,VALID,310,VALID,0,
2005-08-27, 02:09:00,VALID,916.678,VALID,0,VALID,83.6296,VALID,-0.0169808,VALID,18.2842,VALID,310,VALID,0,
2005-08-27, 02:10:00,VALID,916.672,VALID,0,VALID,83.5037,VALID,0.0169808,VALID,18.2863,VALID,310,VALID,0,
2005-08-27, 02:11:00,VALID,916.673,VALID,0,VALID,83.4478,VALID,0.0339617,VALID,18.29,VALID,310,VALID,0,
2005-08-27, 02:12:00,VALID,916.656,VALID,0,VALID,83.2685,VALID,0,VALID,18.2835,VALID,310,VALID,0,
2005-08-27, 02:13:00,VALID,916.636,VALID,0,VALID,83.3333,VALID,0.0169808,VALID,18.3059,VALID,310,VALID,0,
2005-08-27, 02:14:00,VALID,916.636,VALID,0,VALID,83.0943,VALID,0,VALID,18.352,VALID,310,VALID,0,
2005-08-27, 02:15:00,VALID,916.646,VALID,0,VALID,83.0014,VALID,0.0169808,VALID,18.394,VALID,310,VALID,0,
2005-08-27, 02:16:00,VALID,916.662,VALID,0,VALID,83.018,VALID,0,VALID,18.4224,VALID,310,VALID,0,
2005-08-27, 02:17:00,VALID,916.67,VALID,0,VALID,82.8756,VALID,0,VALID,18.4415,VALID,310,VALID,0.0905878,
2005-08-27, 02:18:00,VALID,916.686,VALID,0,VALID,83.4961,VALID,0,VALID,18.4643,VALID,310,VALID,0.01875,
2005-08-27, 02:19:00,VALID,916.685,VALID,0,VALID,82.5538,VALID,0,VALID,18.4544,VALID,310,VALID,0,
2005-08-27, 02:20:00,VALID,916.678,VALID,0,VALID,83.491,VALID,0,VALID,18.4839,VALID,310,VALID,0,
2005-08-27, 02:21:00,VALID,916.679,VALID,0,VALID,84.783,VALID,0,VALID,18.4743,VALID,310,VALID,0,
2005-08-27, 02:22:00,VALID,916.67,VALID,0,VALID,82.8959,VALID,0,VALID,18.442,VALID,310,VALID,0,
2005-08-27, 02:23:00,VALID,916.664,VALID,0,VALID,82.5081,VALID,-0.0169808,VALID,18.4547,VALID,310,VALID,0,
2005-08-27, 02:24:00,VALID,916.655,VALID,0,VALID,82.653,VALID,0,VALID,18.471,VALID,310,VALID,0,
2005-08-27, 02:25:00,VALID,916.648,VALID,0,VALID,83.9475,VALID,-0.0169808,VALID,18.4969,VALID,310,VALID,0,
2005-08-27, 02:26:00,VALID,916.638,VALID,0,VALID,83.3333,VALID,0,VALID,18.4999,VALID,310,VALID,0.096657,
2005-08-27, 02:27:00,VALID,916.634,VALID,0,VALID,86.2593,VALID,0,VALID,18.5172,VALID,310,VALID,0.114784,
2005-08-27, 02:28:00,VALID,916.656,VALID,0,VALID,85.2293,VALID,0,VALID,18.4387,VALID,310,VALID,0,
2005-08-27, 02:29:00,VALID,916.665,VALID,0,VALID,84.3074,VALID,0,VALID,18.3774,VALID,310,VALID,0,
2005-08-27, 02:30:00,VALID,916.692,VALID,0,VALID,84.8059,VALID,0,VALID,18.3453,VALID,310,VALID,0,
2005-08-27, 02:31:00,VALID,916.717,VALID,0,VALID,85.7125,VALID,0.0339617,VALID,18.3227,VALID,310,VALID,0,
2005-08-27, 02:32:00,VALID,916.732,VALID,0,VALID,85.2433,VALID,0.0339617,VALID,18.2614,VALID,310,VALID,0,
2005-08-27, 02:33:00,VALID,916.752,VALID,0,VALID,85.1924,VALID,0.0339617,VALID,18.2132,VALID,310,VALID,0,
2005-08-27, 02:34:00,VALID,916.759,VALID,0,VALID,86.1766,VALID,0.0339617,VALID,18.1901,VALID,310,VALID,0,
2005-08-27, 02:35:00,VALID,916.786,VALID,0,VALID,85.6184,VALID,0.0339617,VALID,18.1286,VALID,310,VALID,0,
2005-08-27, 02:36:00,VALID,916.789,VALID,0,VALID,84.3201,VALID,0.0339617,VALID,18.109,VALID,310,VALID,0,
2005-08-27, 02:37:00,VALID,916.777,VALID,0,VALID,85.2789,VALID,0.0509425,VALID,18.1576,VALID,310,VALID,0,
2005-08-27, 02:38:00,VALID,916.771,VALID,0,VALID,85.8689,VALID,0.0169808,VALID,18.1643,VALID,310,VALID,0,
2005-08-27, 02:39:00,VALID,916.753,VALID,0,VALID,85.4328,VALID,0.0169808,VALID,18.1452,VALID,310,VALID,0,
2005-08-27, 02:40:00,VALID,916.759,VALID,0,VALID,85.3844,VALID,0.0339617,VALID,18.1387,VALID,310,VALID,0,
2005-08-27, 02:41:00,VALID,916.743,VALID,0,VALID,86.2453,VALID,0,VALID,18.1387,VALID,310,VALID,0,
2005-08-27, 02:42:00,VALID,916.74,VALID,0,VALID,85.612,VALID,0,VALID,18.1032,VALID,310,VALID,0,
2005-08-27, 02:43:00,VALID,916.734,VALID,0,VALID,86.122,VALID,0.0169808,VALID,18.0873,VALID,310,VALID,0,
2005-08-27, 02:44:00,VALID,916.709,VALID,0,VALID,89.4167,VALID,0,VALID,18.103,VALID,310,VALID,0,
2005-08-27, 02:45:00,VALID,916.713,VALID,0,VALID,89.479,VALID,0.0169808,VALID,18.0252,VALID,310,VALID,0,
2005-08-27, 02:46:00,VALID,916.707,VALID,0,VALID,87.3046,VALID,-0.0169808,VALID,17.9514,VALID,310,VALID,0,
2005-08-27, 02:47:00,VALID,916.715,VALID,0,VALID,86.347,VALID,0.0339617,VALID,17.9123,VALID,310,VALID,0,
2005-08-27, 02:48:00,VALID,916.715,VALID,0,VALID,86.7832,VALID,0.0169808,VALID,17.9353,VALID,310,VALID,0,
2005-08-27, 02:49:00,VALID,916.723,VALID,0,VALID,86.9472,VALID,0.0169808,VALID,17.9452,VALID,310,VALID,0,
2005-08-27, 02:50:00,VALID,916.718,VALID,0,VALID,87.8259,VALID,0,VALID,17.945,VALID,310,VALID,0,
2005-08-27, 02:51:00,VALID,916.711,VALID,0,VALID,86.6293,VALID,0,VALID,17.9452,VALID,310,VALID,0,
2005-08-27, 02:52:00,VALID,916.716,VALID,0,VALID,87.0388,VALID,0,VALID,17.9678,VALID,310,VALID,0,
2005-08-27, 02:53:00,VALID,916.723,VALID,0,VALID,87.9454,VALID,0,VALID,17.984,VALID,310,VALID,0,
2005-08-27, 02:54:00,VALID,916.719,VALID,0,VALID,87.4889,VALID,0,VALID,17.9547,VALID,310,VALID,0,
2005-08-27, 02:55:00,VALID,916.717,VALID,0,VALID,86.7972,VALID,-0.0339617,VALID,17.9355,VALID,310,VALID,0,
2005-08-27, 02:56:00,VALID,916.707,VALID,0,VALID,88.229,VALID,0,VALID,17.9351,VALID,310,VALID,0,
2005-08-27, 02:57:00,VALID,916.689,VALID,0,VALID,86.9231,VALID,0,VALID,17.9196,VALID,275,VALID,0.168308,
2005-08-27, 02:58:00,VALID,916.672,VALID,0,VALID,87.3821,VALID,-0.0169808,VALID,17.9353,VALID,113,VALID,0.332667,
2005-08-27, 02:59:00,VALID,916.671,VALID,0,VALID,87.8094,VALID,0.0169808,VALID,17.987,VALID,92,VALID,0.00976563,
2005-08-27, 03:00:00,VALID,916.67,VALID,0,VALID,87.7267,VALID,0,VALID,17.9872,VALID,92,VALID,0.105469,
2005-08-27, 03:01:00,VALID,916.678,VALID,0,VALID,86.7794,VALID,0,VALID,17.987,VALID,93,VALID,0.159979,
2005-08-27, 03:02:00,VALID,916.693,VALID,0,VALID,86.4386,VALID,0.0169808,VALID,18.0255,VALID,93,VALID,0.450721,
2005-08-27, 03:03:00,VALID,916.704,VALID,0,VALID,87.92,VALID,0,VALID,18.0843,VALID,89,VALID,0.023247,
2005-08-27, 03:04:00,VALID,916.689,VALID,0,VALID,86.3572,VALID,0.0169808,VALID,18.0612,VALID,89,VALID,0,
2005-08-27, 03:05:00,VALID,916.69,VALID,0,VALID,87.0146,VALID,0.0169808,VALID,18.0776,VALID,86,VALID,0.183685,
2005-08-27, 03:06:00,VALID,916.705,VALID,0,VALID,87.4673,VALID,0,VALID,18.0808,VALID,85,VALID,0.112464,
2005-08-27, 03:07:00,VALID,916.709,VALID,0,VALID,86.7374,VALID,0,VALID,18.0778,VALID,85,VALID,0.0555367,
2005-08-27, 03:08:00,VALID,916.71,VALID,0,VALID,86.2746,VALID,-0.0169808,VALID,18.0744,VALID,85,VALID,0.0990854,
2005-08-27, 03:09:00,VALID,916.714,VALID,0,VALID,87.995,VALID,-0.0169808,VALID,18.0873,VALID,85,VALID,0.186738,
2005-08-27, 03:10:00,VALID,916.702,VALID,0,VALID,87.6924,VALID,0,VALID,18.0647,VALID,85,VALID,0.313194,
2005-08-27, 03:11:00,VALID,916.706,VALID,0,VALID,89.5782,VALID,0,VALID,18.0259,VALID,85,VALID,0.283026,
2005-08-27, 03:12:00,VALID,916.702,VALID,0,VALID,89.7142,VALID,0,VALID,17.9295,VALID,80,VALID,0.459413,
2005-08-27, 03:13:00,VALID,916.707,VALID,0,VALID,87.508,VALID,0,VALID,17.8484,VALID,47,VALID,0.476563,
2005-08-27, 03:14:00,VALID,916.695,VALID,0,VALID,88.3257,VALID,0,VALID,17.8903,VALID,18,VALID,0.148256,
2005-08-27, 03:15:00,VALID,916.684,VALID,0,VALID,87.171,VALID,0.0169808,VALID,17.9226,VALID,18,VALID,0.474185,
2005-08-27, 03:16:00,VALID,916.678,VALID,0,VALID,86.6878,VALID,0,VALID,17.9415,VALID,18,VALID,0.601004,
2005-08-27, 03:17:00,VALID,916.674,VALID,0,VALID,86.3114,VALID,-0.0169808,VALID,17.9966,VALID,18,VALID,0.42223,
2005-08-27, 03:18:00,VALID,916.663,VALID,0,VALID,86.4119,VALID,-0.0169808,VALID,18.0388,VALID,18,VALID,0.35423,
2005-08-27, 03:19:00,VALID,916.638,VALID,0,VALID,86.8188,VALID,-0.0169808,VALID,18.0716,VALID,22,VALID,0.708212,
2005-08-27, 03:20:01,VALID,916.606,VALID,0,VALID,88.3333,VALID,0.0169808,VALID,18.0386,VALID,38,VALID,0.785823,
2005-08-27, 03:21:00,VALID,916.592,VALID,0,VALID,88.2061,VALID,0.0169808,VALID,17.9805,VALID,38,VALID,0.492374,
2005-08-27, 03:22:00,VALID,916.573,VALID,0,VALID,88.7148,VALID,0,VALID,17.936,VALID,38,VALID,0.204427,
2005-08-27, 03:23:00,VALID,916.565,VALID,0,VALID,87.6657,VALID,-0.0339617,VALID,17.9,VALID,38,VALID,0.186133,
2005-08-27, 03:24:00,VALID,916.558,VALID,0,VALID,86.8468,VALID,-0.0169808,VALID,17.9002,VALID,38,VALID,0.438227,
2005-08-27, 03:25:00,VALID,916.563,VALID,0,VALID,87.2524,VALID,-0.0169808,VALID,17.9321,VALID,38,VALID,0.455357,
2005-08-27, 03:26:00,VALID,916.571,VALID,0,VALID,86.581,VALID,0.0169808,VALID,17.9581,VALID,38,VALID,0.464844,
2005-08-27, 03:27:00,VALID,916.559,VALID,0,VALID,86.2072,VALID,0,VALID,17.9775,VALID,38,VALID,0.331032,
2005-08-27, 03:28:00,VALID,916.58,VALID,0,VALID,86.3343,VALID,0,VALID,18.0001,VALID,45,VALID,0.466082,
2005-08-27, 03:29:01,VALID,916.599,VALID,0,VALID,86.9053,VALID,0,VALID,18.0289,VALID,63,VALID,0.49638,
2005-08-27, 03:30:00,VALID,916.59,VALID,0,VALID,86.6586,VALID,-0.0849042,VALID,18.0174,VALID,67,VALID,0.529848,
2005-08-27, 03:31:00,VALID,916.59,VALID,0,VALID,86.1461,VALID,-0.101885,VALID,18.0241,VALID,67,VALID,0.503997,
2005-08-27, 03:32:01,VALID,916.6,VALID,0,VALID,87.419,VALID,-0.101885,VALID,18.0564,VALID,67,VALID,0.406622,
2005-08-27, 03:33:01,VALID,916.588,VALID,0,VALID,88.2048,VALID,-0.101885,VALID,18.0434,VALID,67,VALID,0.370908,
2005-08-27, 03:34:00,VALID,916.57,VALID,0,VALID,88.8229,VALID,-0.101885,VALID,17.9784,VALID,68,VALID,0.558594,
2005-08-27, 03:35:00,VALID,916.548,VALID,0,VALID,87.0973,VALID,-0.0849042,VALID,17.8882,VALID,75,VALID,0.892578,
2005-08-27, 03:36:01,VALID,916.532,VALID,0,VALID,85.3704,VALID,-0.118866,VALID,17.9044,VALID,78,VALID,0.861471,
2005-08-27, 03:37:01,VALID,916.514,VALID,0,VALID,84.4498,VALID,-0.118866,VALID,18.0368,VALID,78,VALID,0.894531,
2005-08-27, 03:38:00,VALID,916.482,VALID,0,VALID,83.7364,VALID,-0.101885,VALID,18.1984,VALID,77,VALID,0.855841,
2005-08-27, 03:39:00,VALID,916.477,VALID,0,VALID,83.3753,VALID,-0.135847,VALID,18.3211,VALID,77,VALID,0.788885,